[[{"header":{"parameterUnit":"m.s-1","parameterCategory":1,"la1":30.2991,"la2":30.254,"lo1":-89.0895,"lo2":-89.0444,"dy":0.0017,"dx":0.0017,"nx":28,"ny":28,"refTime":"2025-04-15T09:00:00:Z","depth":0,"parameterNumber":2,"parameterNumberName":"U-component_of_WINDS"},"data":[0,0,0,0,0,0,0,0,0,0,0,0,0,0,0,0,0,0,0,0,0,0,0,0,0,0,0,0,0,0,0,0,0,0,0,0,0,0,0,0,0,0,0,0,0,0,0,0,0,0,0,0,0,0,0,0,0,0,-3.3054,-3.3054,0,-3.3103,-3.3103,-3.3104,-3.2959,-3.2955,-3.295,-3.2946,-3.2999,-3.3004,-3.301,0,0,0,0,0,0,0,0,0,0,0,0,0,-3.2835,-3.284,-3.3053,-3.3054,-3.3055,-3.3103,-3.3103,-3.3104,-3.296,-3.2954,-3.2949,-3.2944,-3.2997,-3.3003,-3.301,0,0,0,0,0,0,0,0,0,0,0,0,0,-3.2912,-3.2841,-3.3053,-3.2988,-3.2983,-3.3103,-3.3103,-3.3104,-3.2961,-3.2954,-3.2948,-3.2941,-3.2995,-3.3003,-3.3011,-3.3196,0,0,-3.3037,-3.304,0,0,0,0,0,0,0,0,-3.2908,-3.292,-3.2997,-3.2993,-3.2987,-3.3018,-3.3045,-3.3135,-3.2963,-3.297,-3.2946,-3.2938,-3.3011,-3.3017,-3.3041,-3.3199,-3.3201,-3.3037,-3.3042,-3.3046,-3.3048,0,0,0,0,0,0,0,-3.2902,-3.2917,-3.3073,-3.2999,-3.2993,-3.2957,-3.296,-3.3062,-3.3027,-3.2968,-3.2958,-3.2966,-3.3007,-3.3034,-3.3041,-3.3202,-3.3037,-3.3044,-3.305,-3.3053,-3.3513,-3.352,0,0,0,0,0,0,-3.2905,-3.2914,-3.3071,-3.3074,-3.293,-3.2966,-3.297,-3.3015,-3.3025,-3.3021,-3.2971,-3.2959,-3.3023,-3.3032,-3.3043,-3.3261,-3.3046,-3.3054,-3.3058,-3.3506,-3.3514,-3.3522,0,0,0,0,0,0,-3.2901,-3.2921,-3.3069,-3.2991,-3.3007,-3.2977,-3.3028,-3.3019,-3.3046,-3.3028,-3.3021,-3.3005,-3.3018,-3.3031,-3.3159,-3.3261,-3.3057,-3.3065,-3.3497,-3.3508,-3.3518,-3.3698,0,0,0,0,0,0,-3.2896,-3.292,-3.2991,-3.2994,-3.3012,-3.3186,-3.3035,-3.3025,-3.3061,-3.3045,-3.3058,-3.3054,-3.3013,-3.3147,-3.3167,-3.3268,-3.3072,-3.3488,-3.3502,-3.3515,-3.3683,-3.3714,-3.374,0,0,0,0,0,-3.2888,-3.304,-3.2995,-3.3015,-3.3099,-3.3192,-3.3202,-3.3152,-3.3069,-3.314,-3.3127,-3.3053,-3.3245,-3.3162,-3.3183,-3.3288,-3.3481,-3.3498,-3.3514,-3.3671,-3.3708,-3.374,0,0,0,0,0,0,-3.3051,-3.3039,-3.2989,-3.3146,-3.3171,-3.3167,-3.3254,-3.3194,-3.3243,-3.3226,-3.3162,-3.3166,-3.3306,-3.3309,-3.3216,-3.3467,-3.3349,-3.3371,-3.3461,-3.3497,-3.3524,-3.3522,-3.3078,0,0,0,0,0,-3.3104,-3.318,-3.3166,-3.3306,-3.332,-3.3286,-3.3324,-3.3283,-3.3306,-3.3316,-3.3313,-3.3339,-3.3405,-3.345,-3.351,-3.3681,-3.3683,-3.3764,-3.3793,-3.3816,-3.3836,-3.3927,-3.3964,-3.3576,-3.3575,-3.3575,0,0,-3.3217,-3.322,-3.3272,-3.3338,-3.3353,-3.3433,-3.3296,-3.3386,-3.3445,-3.333,-3.3451,-3.345,-3.3474,-3.3625,-3.3691,-3.3632,-3.3943,-3.3837,-3.3856,-3.3863,-3.3948,-3.3985,-3.4017,-3.3587,-3.3585,-3.3583,0,0,-3.3464,-3.3473,-3.3591,-3.3607,-3.363,-3.3605,-3.3634,-3.3639,-3.3633,-3.3753,-3.3668,-3.3737,-3.3852,-3.3873,-3.3899,-3.415,-3.4084,-3.4171,-3.4322,-3.4411,-3.4442,-3.4469,-3.456,-3.4593,-3.4191,-3.4191,-3.4191,0,-3.3602,-3.3719,-3.3659,-3.3756,-3.3788,-3.3685,-3.3804,-3.3823,-3.3865,-3.3889,-3.3821,-3.3963,-3.3972,-3.4126,-3.4187,-3.4211,-3.4242,-3.4171,-3.4442,-3.4468,-3.4492,-3.4579,-3.4613,-3.4202,-3.4201,-3.4199,-3.4198,0,-3.3887,-3.3969,-3.4062,-3.4104,-3.4145,-3.4253,-3.421,-3.4259,-3.4213,-3.4196,-3.4319,-3.4326,-3.4385,-3.4418,-3.4375,-3.4566,-3.4528,-3.4452,-3.4333,-3.4541,-3.4621,-3.4654,-3.4217,-3.4213,-3.421,-3.4207,0,0,-3.4242,-3.4247,-3.4282,-3.43,-3.4316,-3.4378,-3.448,-3.4537,-3.4581,-3.4612,-3.4697,-3.4795,-3.4724,-3.4753,-3.4711,-3.479,-3.499,-3.4703,-3.4703,-3.4758,-3.5202,-3.5261,-3.53,-3.4944,-3.495,-3.4955,-3.52,0,-3.4486,-3.4661,-3.4609,-3.4785,-3.486,-3.4763,-3.4851,-3.4871,-3.4857,-3.4918,-3.4902,-3.4973,-3.4874,-3.4891,-3.4963,-3.495,-3.5079,-3.4931,-3.5024,-3.5028,-3.5024,-3.5342,-3.5405,-3.5636,-3.5231,-3.5236,-3.524,0,-3.4795,-3.4838,-3.5021,-3.5024,-3.5053,-3.5134,-3.5182,-3.5241,-3.5261,-3.5245,-3.5277,-3.5218,-3.5318,-3.5196,-3.5333,-3.5234,-3.5268,-3.5267,-3.5275,-3.5284,-3.5149,-3.5362,-3.5709,-3.5745,-3.5288,-3.5285,-3.5281,0,-3.5038,-3.514,-3.5263,-3.5281,-3.5286,-3.5346,-3.5351,-3.5363,-3.5401,-3.5441,-3.5465,-3.5517,-3.5547,-3.5589,-3.5546,-3.546,-3.569,-3.5564,-3.5681,-3.5682,-3.5736,-3.5734,-3.6096,-3.5754,-3.5754,-3.5753,-3.5752,0,-3.5318,-3.5435,-3.5372,-3.5448,-3.5576,-3.5514,-3.5642,-3.5636,-3.5648,-3.5721,-3.5638,-3.5709,-3.5646,-3.5711,-3.5677,-3.5796,-3.581,-3.58,-3.5791,-3.5809,-3.5811,-3.5833,-3.5817,-3.5762,-3.576,-3.5758,-3.5757,0,-3.5612,-3.5575,-3.5702,-3.5696,-3.5697,-3.5792,-3.5786,-3.5856,-3.5834,-3.5928,-3.5946,-3.5913,-3.5984,-3.5944,-3.6018,-3.5995,-3.6151,-3.6118,-3.6145,-3.6137,-3.6256,-3.6247,-3.6648,-3.6698,-3.6322,-3.6325,-3.6328,0,-3.5795,-3.5882,-3.5885,-3.5927,-3.5938,-3.6007,-3.6044,-3.5986,-3.6028,-3.6056,-3.6123,-3.6187,-3.6235,-3.6354,-3.6337,-3.6393,-3.6362,-3.6498,-3.637,-3.6386,-3.6366,-3.6363,-3.6371,-3.6526,-3.653,-3.6534,-3.6536,0,-3.6124,-3.61,-3.6157,-3.6207,-3.6252,-3.6289,-3.6319,-3.6358,-3.63,-3.6351,-3.6423,-3.6461,-3.6535,-3.66,-3.6647,-3.6652,-3.6586,-3.6576,-3.6606,-3.6628,-3.6641,-3.6637,-3.6218,-3.6568,-3.6565,-3.6563,-3.6561,-3.656,-3.6369,-3.6442,-3.6455,-3.652,-3.6536,-3.6565,-3.663,-3.6615,-3.6674,-3.673,-3.6691,-3.6776,-3.6792,-3.6848,-3.6861,-3.6927,-3.6872,-3.6916,-3.6927,-3.694,-3.6957,-3.6628,-3.6935,-3.6934,-3.6933,-3.6932,-3.6932,0,-3.6696,-3.6698,-3.6758,-3.6802,-3.6853,-3.6783,-3.6812,-3.6859,-3.6935,-3.6955,-3.7003,-3.7086,-3.7148,-3.7134,-3.719,-3.7245,-3.7216,-3.7262,-3.7259,-3.7261,-3.7002,-3.6971,-3.7284,-3.7284,-3.7284,-3.7284,-3.7284,-3.7284,-3.6872,-3.6991,-3.6969,-3.7095,-3.7097,-3.7179,-3.7201,-3.7228,-3.7243,-3.7338,-3.7389,-3.7379,-3.7385,-3.744,-3.7494,-3.7488,-3.7513,-3.7571,-3.7555,-3.7314,-3.7279,-3.7246,-3.7217,-3.7577,-3.7577,-3.7808,-3.781,-3.7812]},{"header":{"parameterUnit":"m.s-1","parameterCategory":1,"la1":30.2991,"la2":30.254,"lo1":-89.0895,"lo2":-89.0444,"dy":0.0017,"dx":0.0017,"nx":28,"ny":28,"refTime":"2025-04-15T09:00:00:Z","depth":0,"parameterNumber":3,"parameterNumberName":"V-component_of_WINDS"},"data":[0,0,0,0,0,0,0,0,0,0,0,0,0,0,0,0,0,0,0,0,0,0,0,0,0,0,0,0,0,0,0,0,0,0,0,0,0,0,0,0,0,0,0,0,0,0,0,0,0,0,0,0,0,0,0,0,0,0,-4.4822,-4.4822,0,-4.4876,-4.4877,-4.4878,-4.4798,-4.4795,-4.4793,-4.479,-4.4842,-4.4846,-4.485,0,0,0,0,0,0,0,0,0,0,0,0,0,-4.4643,-4.4647,-4.4822,-4.4822,-4.4823,-4.4876,-4.4877,-4.4878,-4.4799,-4.4795,-4.4792,-4.4789,-4.4841,-4.4845,-4.485,0,0,0,0,0,0,0,0,0,0,0,0,0,-4.4712,-4.4648,-4.4821,-4.479,-4.4788,-4.4876,-4.4877,-4.4878,-4.4799,-4.4795,-4.4791,-4.4787,-4.4839,-4.4845,-4.4851,-4.4971,0,0,-4.4869,-4.4872,0,0,0,0,0,0,0,0,-4.4708,-4.4718,-4.4794,-4.4792,-4.479,-4.4826,-4.4833,-4.4909,-4.48,-4.4795,-4.479,-4.4785,-4.484,-4.4845,-4.4865,-4.4974,-4.4976,-4.4869,-4.4873,-4.4876,-4.4877,0,0,0,0,0,0,0,-4.4703,-4.4715,-4.4843,-4.4795,-4.4793,-4.4771,-4.4777,-4.4847,-4.484,-4.4795,-4.4789,-4.4797,-4.4838,-4.4859,-4.4865,-4.4977,-4.4869,-4.4875,-4.4878,-4.4881,-4.5185,-4.5189,0,0,0,0,0,0,-4.4703,-4.4712,-4.4841,-4.4845,-4.4738,-4.4778,-4.4784,-4.4819,-4.4839,-4.4838,-4.4801,-4.4793,-4.4851,-4.4858,-4.4867,-4.5008,-4.4876,-4.4881,-4.4885,-4.518,-4.5186,-4.519,0,0,0,0,0,0,-4.4699,-4.4715,-4.4839,-4.4777,-4.4791,-4.4786,-4.4826,-4.4822,-4.4843,-4.4843,-4.4841,-4.4824,-4.4848,-4.4858,-4.4946,-4.5009,-4.4884,-4.4889,-4.5175,-4.5182,-4.5188,-4.5292,0,0,0,0,0,0,-4.4695,-4.4714,-4.4761,-4.4779,-4.4795,-4.4919,-4.4829,-4.4826,-4.4854,-4.4845,-4.4865,-4.4864,-4.4846,-4.4937,-4.4952,-4.5015,-4.4894,-4.5169,-4.5178,-4.5186,-4.5283,-4.5302,-4.5317,0,0,0,0,0,-4.4688,-4.4788,-4.4764,-4.478,-4.4854,-4.4923,-4.4932,-4.491,-4.486,-4.4906,-4.4906,-4.4863,-4.5,-4.4947,-4.4962,-4.5028,-4.5165,-4.5175,-4.5185,-4.5275,-4.5298,-4.5317,0,0,0,0,0,0,-4.4777,-4.479,-4.4764,-4.4872,-4.4897,-4.4909,-4.4967,-4.4935,-4.4973,-4.4963,-4.4933,-4.4938,-4.5031,-4.5038,-4.4979,-4.5145,-4.5074,-4.5087,-4.5137,-4.5158,-4.5175,-4.5171,-4.4899,0,0,0,0,0,-4.481,-4.4866,-4.4873,-4.4968,-4.4982,-4.4973,-4.5002,-4.4983,-4.5007,-4.5017,-4.5023,-4.5047,-4.5094,-4.5127,-4.5171,-4.5284,-4.5286,-4.5336,-4.5354,-4.5368,-4.538,-4.5438,-4.546,-4.5224,-4.5224,-4.5223,0,0,-4.4877,-4.4891,-4.4928,-4.4986,-4.5004,-4.5061,-4.4982,-4.5047,-4.5089,-4.5026,-4.5109,-4.5114,-4.5139,-4.5239,-4.5283,-4.5247,-4.5445,-4.5381,-4.5392,-4.5396,-4.5451,-4.5473,-4.5493,-4.5231,-4.5229,-4.5228,0,0,-4.5028,-4.5045,-4.5126,-4.5145,-4.5172,-4.5165,-4.5184,-4.5201,-4.5203,-4.5286,-4.5239,-4.5288,-4.5372,-4.539,-4.5411,-4.5569,-4.553,-4.5584,-4.5674,-4.5731,-4.5749,-4.5766,-4.5821,-4.5841,-4.5596,-4.5596,-4.5596,0,-4.5108,-4.5195,-4.517,-4.5238,-4.5265,-4.5212,-4.5292,-4.5311,-4.5351,-4.5369,-4.5329,-4.5432,-4.5445,-4.5548,-4.5586,-4.5605,-4.5625,-4.5581,-4.5749,-4.5765,-4.578,-4.5832,-4.5853,-4.5602,-4.5602,-4.5601,-4.56,0,-4.529,-4.5351,-4.5412,-4.5453,-4.5486,-4.556,-4.5545,-4.5581,-4.5559,-4.5555,-4.5639,-4.5653,-4.5698,-4.5721,-4.57,-4.5821,-4.5798,-4.5754,-4.5682,-4.5809,-4.5857,-4.5877,-4.5611,-4.5609,-4.5607,-4.5606,0,0,-4.55,-4.5526,-4.5549,-4.5566,-4.5592,-4.5638,-4.5708,-4.5753,-4.5784,-4.5813,-4.587,-4.5942,-4.5901,-4.5924,-4.5904,-4.5955,-4.6077,-4.5904,-4.5904,-4.5935,-4.621,-4.6242,-4.6266,-4.6052,-4.6056,-4.6059,-4.6207,0,-4.565,-4.5773,-4.5753,-4.5871,-4.5926,-4.5876,-4.5937,-4.5958,-4.5957,-4.6001,-4.5998,-4.6049,-4.5992,-4.6006,-4.6054,-4.6053,-4.6132,-4.6042,-4.6103,-4.6106,-4.6098,-4.6291,-4.6326,-4.6466,-4.6226,-4.623,-4.6232,0,-4.5842,-4.588,-4.6004,-4.602,-4.6042,-4.6097,-4.6137,-4.6181,-4.6203,-4.6198,-4.6224,-4.6194,-4.6262,-4.619,-4.6282,-4.6221,-4.6245,-4.6248,-4.6253,-4.6257,-4.6176,-4.63,-4.651,-4.653,-4.6262,-4.6259,-4.6257,0,-4.5981,-4.6062,-4.6147,-4.6163,-4.6185,-4.6224,-4.6235,-4.6253,-4.6281,-4.6315,-4.6333,-4.6374,-4.6396,-4.6428,-4.6409,-4.6358,-4.6504,-4.643,-4.65,-4.6501,-4.6533,-4.6531,-4.6748,-4.655,-4.655,-4.6549,-4.6549,0,-4.6151,-4.6229,-4.6209,-4.6261,-4.6346,-4.6321,-4.6405,-4.6409,-4.6426,-4.6476,-4.6435,-4.6483,-4.6456,-4.6501,-4.6487,-4.6564,-4.6575,-4.6572,-4.6567,-4.6575,-4.6575,-4.659,-4.6579,-4.6555,-4.6554,-4.6552,-4.6551,0,-4.6321,-4.6311,-4.64,-4.6413,-4.6417,-4.6479,-4.6489,-4.6537,-4.6532,-4.6596,-4.6609,-4.6601,-4.6652,-4.6637,-4.6692,-4.6682,-4.678,-4.6763,-4.6773,-4.6768,-4.6839,-4.6832,-4.7073,-4.7102,-4.6886,-4.6888,-4.689,0,-4.6429,-4.6488,-4.6507,-4.6539,-4.6553,-4.6604,-4.6633,-4.661,-4.6641,-4.667,-4.6714,-4.6761,-4.6798,-4.6882,-4.6879,-4.6921,-4.6904,-4.6985,-4.691,-4.6916,-4.6904,-4.69,-4.6905,-4.7,-4.7002,-4.7004,-4.7006,0,-4.6623,-4.6615,-4.6659,-4.6701,-4.6737,-4.6769,-4.6796,-4.6824,-4.6802,-4.6839,-4.6892,-4.692,-4.6976,-4.7023,-4.7061,-4.7069,-4.7034,-4.703,-4.7048,-4.7057,-4.706,-4.7058,-4.6813,-4.7024,-4.7023,-4.7021,-4.702,-4.702,-4.6765,-4.6814,-4.6835,-4.6885,-4.6903,-4.693,-4.6975,-4.6976,-4.7019,-4.7064,-4.7047,-4.7107,-4.7126,-4.7173,-4.7186,-4.7231,-4.72,-4.7226,-4.7233,-4.724,-4.7248,-4.7054,-4.7238,-4.7237,-4.7237,-4.7236,-4.7236,0,-4.6955,-4.6966,-4.7012,-4.7053,-4.7091,-4.7056,-4.7084,-4.7119,-4.7172,-4.7194,-4.7231,-4.729,-4.7335,-4.7336,-4.7378,-4.7414,-4.7399,-4.7425,-4.7422,-4.7424,-4.7274,-4.7254,-4.7437,-4.7437,-4.7437,-4.7437,-4.7437,-4.7437,-4.7059,-4.714,-4.7134,-4.7223,-4.7233,-4.7292,-4.7311,-4.7335,-4.7352,-4.742,-4.7458,-4.7459,-4.7472,-4.7514,-4.7553,-4.7552,-4.7569,-4.7602,-4.7595,-4.7455,-4.7435,-4.7416,-4.7397,-4.7606,-4.7607,-4.7741,-4.7742,-4.7743]}]]